CZ-4 DEB, 26152

Orbit data source: Space-Track

CZ-4 DEB, 26152 is space debris in SSO originally from a launch on Thu, 14 Oct 1999 UTC launched from the Taiyaun Space Center, China (TSC). Debris objects in space refer to the collection of defunct objects orbiting the Earth. Examples of debris include non-operational satellites, rocket bodies, and fragments generated from explosions, collisions, or faulty payload assembly.

Loading next visibility...
Identifier
26152, 1999-057AN
Orbit
SSO
Country
Flag of CNCN / PRC
Related business
Manufacturer
Unknown
Mission
Spacecraft
Bus & Motor
Unknown
Mass
Unknown
Launch date (UTC)
1999-10-14 (26 years ago)
Launch vehicle
Unknown
Launch site
Taiyaun Space Center, China (TSC)
Object type
Payload
Rocket body
Debris
Shape & HBR
Unknown shape, 0.1 m
Radar Cross Section
Small (<0.1 m²)

Expand to show TLE details & history
Last TLE update: 1 day ago

TLE from 1 day ago
0 CZ-4 DEB
1 26152U 99057AN  25309.06500816  .00000648  00000-0  58764-3 0  9992
2 26152  99.1476 333.7248 0519651 148.7258 273.9490 13.38245111248126
Epoch: 2025-11-05T01:33Z
TLE epoch observation values (Epoch: 2025-11-05T01:33:36.705Z)
Latitude
55.72079°
Longitude
-107.81472°
Altitude
1,118.406 km
Speed
7.302 km/s
True Right ascension
21h 20m 31s
True Declination
55° 34' 06"
Sunlit
Object was in daylight at epoch
Visualization orbit readout
Latitude
Unknown
Longitude
Unknown
Altitude
Unknown
Speed
Unknown
Apparent Right ascension
Unknown
Apparent Declination
Unknown
Sunlit
N/A
Visualization observer readout
Local Sidereal Time
06:31:23
Azimuth
Unknown
Elevation
Unknown
Doppler factor
Unknown
Orbital elements
Apogee altitude
1,502.385 km
Perigee altitude
723.819 km
Semi-major axis
7,491.239 km
Eccentricity
0.05197
Inclination
99.1476°
RAAN
333.7248°
Arg. of periapsis
148.7258°
True anomaly
267.99244°
Mean anomaly
273.949°
Eccentric anomaly
270.97205°
Mean motion
3.34744 °/min
Orbital period
107.54 mins
BSTAR
0.00058764
Loading maneuver chart data...
Computing Atmospheric mass density...

Documentation

Showing up to 5 results
|